ヘリン-ローレンス彗星

152P/Helin-Lawrence (2022)

English version
Home page
Updated on August 14, 2022

---------------------------------------------------------------------

・ プロフィール

・ 写真集

・ 軌道要素

Epoch 2022 Aug. 9.0 TT = JDT 2459800.5
T 2022 Jan. 13.83920 TT                                 Rudenko
q   3.0951039            (2000.0)            P               Q
n   0.10406548     Peri.  163.97758     -0.24061659     +0.95534854
a   4.4764278      Node    91.85783     -0.90830526     -0.15933557
e   0.3085773      Incl.    9.88039     -0.34217717     -0.24883999
P   9.47
From 1009 observations 1993 Apr. 22-2022 June 11, mean residual 0".9.
     Nongravitational parameters A1 = +0.06, A2 = +0.0145.

・ 星図

・ 光度変化

        m1 = 5.0 + 5 logΔ + 20.0 log r(t - 30)

---------------------------------------------------------------------

軌道要素はM.P.E.C. 2022-M21に掲載されたものです。
星図はステラナビゲータ Ver.10 (アストロアーツ) で作成したものです。
光度グラフはComet for Windowsで作成したものです。

---------------------------------------------------------------------

Copyright(C) Seiichi Yoshida (comet@aerith.net). All rights reserved.